Simultaneous Nadir Overpasses (SNOs) Predictions

Prediction of SNOs between NOAA-19 and TERRA Satellite Orbit:

Table of predicted SNOs for the next 14.0 days since TLE Epoch: 1/2/2021
Index Date (NOAA-19) Time (NOAA-19) Lat,Lon (NOAA-19) SZA (NOAA-19 ) Date (TERRA) Time (TERRA) Lat,Lon (TERRA) SZA (TERRA ) Distance(km) Time Diff (sec)
1 01/02/2021 21:05:16 79.95,-104.97 104.03 01/02/2021 21:06:19 79.97,-105.04 104.05 2.14 63
2 01/02/2021 21:56:13 -79.95, 62.39 75.98 01/02/2021 21:55:47 -79.93, 62.29 76.01 2.58 26
3 01/05/2021 03:29:30 79.96, 158.97 103.77 01/05/2021 03:29:29 79.96, 159.12 103.79 2.86 1
4 01/07/2021 09:02:40 -79.97,-104.36 76.52 01/07/2021 09:03:13 -79.95,-104.39 76.53 2.04 33
5 01/07/2021 09:53:43 79.95, 63.21 103.49 01/07/2021 09:52:39 79.95, 63.26 103.48 1.40 64
6 01/09/2021 14:35:56 79.97, -7.53 103.17 01/09/2021 14:36:54 79.98, -7.63 103.19 2.31 58
7 01/09/2021 15:26:52 -79.97, 159.74 76.84 01/09/2021 15:26:22 -79.94, 159.74 76.87 2.44 30
8 01/11/2021 21:00:10 79.98,-103.64 102.81 01/11/2021 21:00:04 79.96,-103.54 102.80 2.54 6
9 01/14/2021 02:33:18 -79.97, -6.71 77.58 01/14/2021 02:33:47 -79.99, -6.78 77.57 2.47 29



Historial Predications of SNOs between NOAA-19 and TERRA
